Time,TemperatureF,DewpointF,PressureIn,WindDirection,WindDirectionDegrees,WindSpeedMPH,WindSpeedGustMPH,Humidity,HourlyPrecipIn,Conditions,Clouds,dailyrainin,SoftwareType,DateUTC
2013-09-14 00:24:00,60.0,57.0,29.83,North,5,0.0,0.0,89,0.00,,,0.00,,2013-09-14 04:24:00,
2013-09-14 00:43:00,60.0,57.0,29.84,North,5,0.0,0.0,89,0.00,,,0.00,,2013-09-14 04:43:00,
2013-09-14 00:54:00,60.0,57.0,29.84,North,5,0.0,2.0,91,0.00,,,0.00,,2013-09-14 04:54:00,
2013-09-14 01:13:00,60.0,57.0,29.84,North,5,0.0,1.0,89,0.00,,,0.00,,2013-09-14 05:13:00,
2013-09-14 01:22:00,60.0,57.0,29.85,North,5,0.0,1.0,90,0.00,,,0.00,,2013-09-14 05:22:00,
2013-09-14 01:43:00,60.0,56.0,29.85,North,5,0.0,2.0,88,0.00,,,0.00,,2013-09-14 05:43:00,
2013-09-14 01:52:00,60.0,56.0,29.85,North,5,0.0,2.0,87,0.00,,,0.00,,2013-09-14 05:52:00,
2013-09-14 02:12:00,60.0,56.0,29.85,North,5,0.0,1.0,86,0.00,,,0.00,,2013-09-14 06:12:00,
2013-09-14 02:22:00,60.0,56.0,29.85,North,5,0.0,3.0,86,0.00,,,0.00,,2013-09-14 06:22:00,
2013-09-14 02:42:00,60.0,56.0,29.85,North,5,0.0,1.0,86,0.00,,,0.00,,2013-09-14 06:42:00,
2013-09-14 02:52:00,60.0,56.0,29.86,North,5,0.0,0.0,86,0.00,,,0.00,,2013-09-14 06:52:00,
2013-09-14 03:12:00,59.0,55.0,29.86,North,5,0.0,0.0,87,0.00,,,0.00,,2013-09-14 07:12:00,
2013-09-14 03:22:00,59.0,55.0,29.86,North,5,0.0,0.0,88,0.00,,,0.00,,2013-09-14 07:22:00,
2013-09-14 03:42:00,58.0,55.0,29.86,North,5,0.0,0.0,89,0.00,,,0.00,,2013-09-14 07:42:00,
2013-09-14 03:52:00,58.0,55.0,29.86,North,5,0.0,0.0,90,0.00,,,0.00,,2013-09-14 07:52:00,
2013-09-14 04:12:00,58.0,55.0,29.86,North,5,0.0,0.0,90,0.00,,,0.00,,2013-09-14 08:12:00,
2013-09-14 04:22:00,57.0,54.0,29.86,North,5,0.0,0.0,91,0.00,,,0.00,,2013-09-14 08:22:00,
2013-09-14 04:42:00,57.0,54.0,29.86,North,5,0.0,0.0,91,0.00,,,0.00,,2013-09-14 08:42:00,
2013-09-14 04:52:00,56.0,54.0,29.87,North,5,0.0,0.0,92,0.00,,,0.00,,2013-09-14 08:52:00,
2013-09-14 05:12:00,56.0,54.0,29.87,North,5,0.0,0.0,92,0.00,,,0.00,,2013-09-14 09:12:00,
2013-09-14 05:22:00,56.0,54.0,29.87,North,5,0.0,0.0,92,0.00,,,0.00,,2013-09-14 09:22:00,
2013-09-14 05:43:00,55.0,53.0,29.87,North,5,0.0,0.0,93,0.00,,,0.00,,2013-09-14 09:43:00,
2013-09-14 05:53:00,55.0,53.0,29.88,North,5,0.0,0.0,93,0.00,,,0.00,,2013-09-14 09:53:00,
2013-09-14 06:12:00,55.0,53.0,29.88,North,5,0.0,0.0,94,0.00,,,0.00,,2013-09-14 10:12:00,
2013-09-14 06:23:00,55.0,53.0,29.88,North,5,0.0,0.0,94,0.00,,,0.00,,2013-09-14 10:23:00,
2013-09-14 06:52:00,54.0,53.0,29.90,North,5,0.0,0.0,95,0.00,,,0.00,,2013-09-14 10:52:00,
2013-09-14 07:12:00,54.0,52.0,29.90,North,5,0.0,0.0,94,0.00,,,0.00,,2013-09-14 11:12:00,
2013-09-14 07:22:00,54.0,53.0,29.91,North,5,0.0,1.0,95,0.00,,,0.00,,2013-09-14 11:22:00,
2013-09-14 07:42:00,54.0,53.0,29.92,North,5,0.0,0.0,95,0.00,,,0.00,,2013-09-14 11:42:00,
2013-09-14 07:52:00,54.0,53.0,29.93,North,5,0.0,0.0,95,0.00,,,0.00,,2013-09-14 11:52:00,
2013-09-14 08:12:00,54.0,53.0,29.94,North,5,0.0,0.0,95,0.00,,,0.00,,2013-09-14 12:12:00,
2013-09-14 08:22:00,54.0,53.0,29.94,North,5,0.0,0.0,95,0.00,,,0.00,,2013-09-14 12:22:00,
2013-09-14 08:52:00,55.0,54.0,29.96,North,5,0.0,1.0,96,0.00,,,0.00,,2013-09-14 12:52:00,
2013-09-14 09:12:00,55.0,54.0,29.97,North,5,0.0,2.0,96,0.00,,,0.00,,2013-09-14 13:12:00,
2013-09-14 09:21:00,57.0,55.0,29.97,North,5,1.0,4.0,92,0.00,,,0.00,,2013-09-14 13:21:00,
2013-09-14 09:42:00,60.0,56.0,29.97,North,5,0.0,4.0,86,0.00,,,0.00,,2013-09-14 13:42:00,
2013-09-14 09:52:00,62.0,55.0,29.98,North,5,1.0,5.0,79,0.00,,,0.00,,2013-09-14 13:52:00,
2013-09-14 10:12:00,64.0,54.0,29.98,North,5,0.0,5.0,71,0.00,,,0.00,,2013-09-14 14:12:00,
2013-09-14 10:22:00,66.0,53.0,29.99,North,5,1.0,7.0,63,0.00,,,0.00,,2013-09-14 14:22:00,
2013-09-14 10:42:00,66.0,53.0,29.99,North,5,1.0,5.0,62,0.00,,,0.00,,2013-09-14 14:42:00,
2013-09-14 10:52:00,67.0,53.0,29.99,North,5,2.0,9.0,60,0.00,,,0.00,,2013-09-14 14:52:00,
2013-09-14 11:11:00,68.0,54.0,30.00,North,5,1.0,4.0,61,0.00,,,0.00,,2013-09-14 15:11:00,
2013-09-14 11:22:00,69.0,55.0,30.00,North,5,0.0,6.0,60,0.00,,,0.00,,2013-09-14 15:22:00,
2013-09-14 11:43:00,70.0,54.0,30.00,North,5,2.0,6.0,57,0.00,,,0.00,,2013-09-14 15:43:00,
2013-09-14 11:53:00,71.0,55.0,29.99,North,5,0.0,8.0,57,0.00,,,0.00,,2013-09-14 15:53:00,
2013-09-14 12:14:00,72.0,55.0,29.99,North,5,0.0,6.0,56,0.00,,,0.00,,2013-09-14 16:14:00,
2013-09-14 12:23:00,72.0,55.0,29.99,North,5,1.0,5.0,55,0.00,,,0.00,,2013-09-14 16:23:00,
2013-09-14 12:44:00,73.0,55.0,29.99,North,5,1.0,5.0,53,0.00,,,0.00,,2013-09-14 16:44:00,
2013-09-14 12:54:00,74.0,56.0,30.00,North,5,1.0,6.0,53,0.00,,,0.00,,2013-09-14 16:54:00,
2013-09-14 13:11:00,74.0,54.0,29.99,North,5,1.0,4.0,50,0.00,,,0.00,,2013-09-14 17:11:00,
2013-09-14 13:24:00,75.0,56.0,29.99,North,5,1.0,6.0,52,0.00,,,0.00,,2013-09-14 17:24:00,
2013-09-14 13:43:00,75.0,55.0,29.99,North,5,0.0,7.0,49,0.00,,,0.00,,2013-09-14 17:43:00,
2013-09-14 13:54:00,76.0,56.0,29.98,North,5,3.0,8.0,50,0.00,,,0.00,,2013-09-14 17:54:00,
2013-09-14 14:12:00,76.0,56.0,29.98,North,5,1.0,5.0,50,0.00,,,0.00,,2013-09-14 18:12:00,
2013-09-14 14:22:00,77.0,55.0,29.98,North,5,1.0,6.0,47,0.00,,,0.00,,2013-09-14 18:22:00,
2013-09-14 14:43:00,77.0,55.0,29.97,North,5,1.0,4.0,47,0.00,,,0.00,,2013-09-14 18:43:00,
2013-09-14 14:52:00,78.0,56.0,29.97,North,5,1.0,5.0,47,0.00,,,0.00,,2013-09-14 18:52:00,
2013-09-14 15:11:00,79.0,56.0,29.97,North,5,1.0,7.0,46,0.00,,,0.00,,2013-09-14 19:11:00,
2013-09-14 15:22:00,79.0,58.0,29.96,North,5,1.0,8.0,49,0.00,,,0.00,,2013-09-14 19:22:00,
2013-09-14 15:42:00,79.0,56.0,29.96,North,5,0.0,7.0,45,0.00,,,0.00,,2013-09-14 19:42:00,
2013-09-14 15:52:00,79.0,57.0,29.96,North,5,2.0,7.0,47,0.00,,,0.00,,2013-09-14 19:52:00,
2013-09-14 16:12:00,80.0,57.0,29.95,North,5,1.0,5.0,46,0.00,,,0.00,,2013-09-14 20:12:00,
2013-09-14 16:22:00,80.0,59.0,29.96,North,5,1.0,3.0,48,0.00,,,0.00,,2013-09-14 20:22:00,
2013-09-14 16:42:00,80.0,60.0,29.96,North,5,0.0,3.0,51,0.00,,,0.00,,2013-09-14 20:42:00,
2013-09-14 16:52:00,80.0,59.0,29.96,North,5,1.0,4.0,48,0.00,,,0.00,,2013-09-14 20:52:00,
2013-09-14 17:12:00,80.0,58.0,29.96,North,5,1.0,4.0,47,0.00,,,0.00,,2013-09-14 21:12:00,
2013-09-14 17:22:00,80.0,58.0,29.96,North,5,0.0,3.0,47,0.00,,,0.00,,2013-09-14 21:22:00,
2013-09-14 17:44:00,80.0,62.0,29.96,North,5,0.0,3.0,54,0.00,,,0.00,,2013-09-14 21:44:00,
2013-09-14 17:54:00,79.0,62.0,29.97,North,5,0.0,2.0,57,0.00,,,0.00,,2013-09-14 21:54:00,
2013-09-14 18:13:00,78.0,62.0,29.97,North,5,0.0,2.0,58,0.00,,,0.00,,2013-09-14 22:13:00,
2013-09-14 18:24:00,77.0,63.0,29.97,North,5,0.0,1.0,62,0.00,,,0.00,,2013-09-14 22:24:00,
2013-09-14 18:42:00,76.0,62.0,29.98,North,5,0.0,2.0,63,0.00,,,0.00,,2013-09-14 22:42:00,
2013-09-14 18:53:00,75.0,63.0,29.98,North,5,0.0,1.0,66,0.00,,,0.00,,2013-09-14 22:53:00,
2013-09-14 19:12:00,72.0,61.0,29.98,North,5,0.0,1.0,69,0.00,,,0.00,,2013-09-14 23:12:00,
2013-09-14 19:23:00,69.0,60.0,29.98,North,5,0.0,0.0,74,0.00,,,0.00,,2013-09-14 23:23:00,
2013-09-14 20:53:00,62.0,58.0,29.99,North,5,0.0,1.0,88,0.00,,,0.00,,2013-09-15 00:53:00,
2013-09-14 21:11:00,62.0,59.0,30.00,North,5,0.0,1.0,90,0.00,,,0.00,,2013-09-15 01:11:00,
2013-09-14 21:22:00,62.0,59.0,30.01,North,5,0.0,1.0,90,0.00,,,0.00,,2013-09-15 01:22:00,
2013-09-14 21:42:00,62.0,59.0,30.01,North,5,0.0,0.0,90,0.00,,,0.00,,2013-09-15 01:42:00,
2013-09-14 21:52:00,61.0,58.0,30.02,North,5,0.0,0.0,90,0.00,,,0.00,,2013-09-15 01:52:00,
2013-09-14 22:12:00,61.0,58.0,30.03,North,5,0.0,0.0,91,0.00,,,0.00,,2013-09-15 02:12:00,
2013-09-14 22:22:00,61.0,58.0,30.03,North,5,0.0,0.0,91,0.00,,,0.00,,2013-09-15 02:22:00,
2013-09-14 22:42:00,61.0,59.0,30.03,North,5,0.0,1.0,92,0.00,,,0.00,,2013-09-15 02:42:00,
2013-09-14 22:52:00,61.0,59.0,30.04,North,5,0.0,0.0,93,0.00,,,0.00,,2013-09-15 02:52:00,
2013-09-14 23:11:00,61.0,59.0,30.04,North,5,0.0,0.0,92,0.00,,,0.00,,2013-09-15 03:11:00,
2013-09-14 23:22:00,60.0,58.0,30.04,North,5,0.0,0.0,92,0.00,,,0.00,,2013-09-15 03:22:00,
2013-09-14 23:44:00,60.0,57.0,30.05,North,5,0.0,0.0,91,0.00,,,0.00,,2013-09-15 03:44:00,
2013-09-14 23:55:00,60.0,58.0,30.05,North,5,0.0,0.0,92,0.00,,,0.00,,2013-09-15 03:55:00,